Printer-friendly version

IAU Minor Planet Center

Minor Planet Center

MPEC 2004-F54 : 2004 FZ5

The following Minor Planet Electronic Circular may be linked-to from your own Web pages, but must not otherwise be redistributed electronically.


Read MPEC 2004-F53 Read MPEC 2004-F55


M.P.E.C. 2004-F54                                Issued 2004 Mar. 24, 04:27 UT

     The Minor Planet Electronic Circulars contain information on unusual
         minor planets and routine data on comets.  They are published
   on behalf of Commission 20 of the International Astronomical Union by the
          Minor Planet Center, Smithsonian Astrophysical Observatory,
                          Cambridge, MA 02138, U.S.A.

         Supported in part by the Steven and Michele Kirsch Foundation
             Prepared using the Tamkin Foundation Computer Network

                              MPC@CFA.HARVARD.EDU
          URL http://cfa-www.harvard.edu/iau/mpc.html  ISSN 1523-6714

                                   2004 FZ5

Observations:
     K04F05Z  C2004 03 19.34462 11 13 15.62 -02 17 38.6          19.3   EF054704
     K04F05Z  C2004 03 19.36747 11 13 15.47 -02 16 26.4          19.8   EF054704
     K04F05Z  C2004 03 19.37876 11 13 15.22 -02 15 51.8          19.8   EF054704
     K04F05Z  C2004 03 19.39067 11 13 15.14 -02 15 13.2          19.7   EF054704
     K04F05Z  C2004 03 20.27574 11 13 12.52 -01 28 07.6          19.3   EF054704
     K04F05Z  C2004 03 20.28654 11 13 12.45 -01 27 32.6          19.7   EF054704
     K04F05Z  C2004 03 20.30834 11 13 12.28 -01 26 23.2          19.9   EF054704
     K04F05Z  C2004 03 20.31968 11 13 12.13 -01 25 45.6          20.0   EF054704
     K04F05Z* C2004 03 23.22307 11 13 09.21 +01 13 25.0          19.5   EF054704
     K04F05Z  C2004 03 23.23436 11 13 09.15 +01 14 02.3          19.7   EF054704
     K04F05Z  C2004 03 23.24493 11 13 09.12 +01 14 37.8          19.4   EF054704
     K04F05Z  C2004 03 23.25564 11 13 09.06 +01 15 13.5          19.5   EF054704
     K04F05Z  C2004 03 23.26639 11 13 08.98 +01 15 50.1          19.8   EF054704

Observer details:
704 Lincoln Laboratory ETS, New Mexico.  Observers M. Blythe, F. Shelly,
    M. Bezpalko, R. Huber, L. Manguso, D. Torres, R. Kracke, M. McCleary,
    H. Stange, A. Milner.  Measurers J. Stuart, R. Sayer, J. Evans, J. Kommers.
    1.0-m f/2.15 reflector + CCD.

Orbital elements:
2004 FZ5
Epoch 2004 Mar. 16.0 TT = JDT 2453080.5                 MPC
M 338.10992              (2000.0)            P               Q
n   0.31154530     Peri.   44.78279     -0.69727084     +0.71676744
a   2.1550396      Node   181.09733     -0.71678329     -0.69729546
e   0.4051562      Incl.   23.39340     -0.00592403     +0.00484508
P   3.16           H   19.3           G   0.15
From 13 observations 2004 Mar. 19-23.

Ephemeris:
2004 FZ5                 a,e,i = 2.16, 0.41, 23                  q = 1.2819
Date    TT    R. A. (2000) Decl.     Delta      r     Elong.  Phase     V
2004 03 16    11 13.59   -05 08.1    0.453    1.443   169.7     7.1    18.9
2004 03 26    11 13.30   +03 50.8    0.420    1.403   162.1    12.6    18.9
2004 04 05    11 16.14   +13 25.8    0.413    1.369   148.2    22.6    19.1
2004 04 15    11 23.54   +22 06.3    0.426    1.339   134.9    32.1    19.4
2004 04 25    11 36.11   +28 54.0    0.456    1.315   123.6    39.6    19.8
2004 05 05    11 53.69   +33 35.5    0.494    1.297   114.9    44.9    20.1
2004 05 15    12 15.29   +36 23.0    0.537    1.286   108.4    48.3    20.3
2004 05 25    12 39.79   +37 33.5    0.582    1.282   103.7    50.2    20.5
2004 06 04    13 06.08   +37 24.1    0.626    1.285   100.4    50.9    20.7
2004 06 14    13 33.18   +36 08.8    0.671    1.296    98.4    50.8    20.9
2004 06 24    14 00.50   +33 58.0    0.715    1.313    97.2    50.2    21.0
2004 07 04    14 27.68   +31 02.4    0.760    1.337    96.6    49.0    21.2
2004 07 14    14 54.49   +27 31.5    0.807    1.367    96.4    47.7    21.3
2004 07 24    15 20.93   +23 35.0    0.860    1.401    96.4    46.1    21.5
2004 08 03    15 47.03   +19 24.0    0.918    1.440    96.2    44.5    21.6
2004 08 13    16 12.80   +15 09.1    0.986    1.483    95.8    42.8    21.8
2004 08 23    16 38.31   +11 00.2    1.063    1.528    94.9    41.2    22.0

Timothy B. Spahr             (C) Copyright 2004 MPC           M.P.E.C. 2004-F54

Read MPEC 2004-F53 Read MPEC 2004-F55


Our Web policy. Index to the CBAT/MPC/ICQ pages.


Valid HTML 4.01!